Theta_e
315 317 320 317 317 319 317 319 318 318 317 311 313 313 315 320 322 321 321 323 324 325 326 329 329 326 328 332 332 337 343 347 347 340 341 354 348 347 349 349 352 350 348 346 342 334 332 331 329 334 338 340 340 341 342 341 339 336 332 331 333 334 338 340 342 342 343 343 342 341 335 331 328 328 329 332 338 341 341 341 341 340 340 340 340 340 339 340 341 341 340 339 338 338 337 337 337
318 320 321 316 317 320 320 320 317 315 312 308 311 315 317 321 321 319 321 328 331 331 330 331 330 329 332 338 336 338 344 347 350 349 349 350 346 348 349 350 351 350 348 345 342 341 342 337 332 336 338 339 340 341 341 340 338 336 332 333 334 335 339 341 343 343 343 342 342 339 334 331 327 326 327 329 335 339 341 341 340 339 339 339 339 339 339 339 340 339 339 339 338 338 338 337 336
323 320 316 314 318 321 323 322 314 310 309 307 309 317 321 320 320 321 327 331 336 333 333 333 332 334 335 337 335 340 346 348 348 347 347 348 348 348 348 350 350 350 348 344 342 343 346 340 334 338 339 339 340 340 340 339 339 335 334 334 334 337 341 342 343 342 342 342 341 339 333 330 327 327 331 333 334 336 338 339 340 339 339 339 339 339 339 339 339 339 339 339 338 338 337 336 336
325 318 314 315 318 320 323 321 316 311 308 307 308 318 321 319 322 327 332 335 335 332 333 334 335 339 342 339 337 345 349 348 348 348 347 349 350 347 349 350 349 350 347 345 342 344 344 338 336 339 339 339 339 339 338 339 338 336 335 335 337 340 342 343 343 342 342 342 340 335 331 330 330 332 335 336 335 336 337 338 339 339 339 339 339 339 339 339 339 339 339 339 338 337 337 336 334
321 316 316 317 318 320 320 319 316 311 309 311 310 317 321 319 325 328 329 330 331 333 335 333 337 340 345 345 343 348 349 347 348 349 349 350 349 348 349 349 350 351 348 346 343 345 342 334 338 342 340 339 339 338 337 337 336 336 336 336 339 341 343 342 342 342 341 339 335 333 333 335 335 335 337 337 337 339 338 338 339 339 339 339 339 339 339 339 339 338 339 338 338 337 336 336 334
319 315 317 319 321 320 318 315 313 311 313 317 315 318 320 319 324 323 322 322 325 330 333 334 336 339 345 348 348 350 349 347 347 350 352 351 349 348 349 349 351 350 348 347 344 346 339 333 339 342 342 341 338 338 337 337 337 336 337 338 341 342 342 342 342 341 337 333 333 335 338 338 339 338 338 338 340 340 338 338 338 339 339 339 339 338 339 338 338 338 339 338 338 337 335 336 337
318 315 317 317 320 320 316 312 311 313 315 320 317 319 319 319 320 319 320 320 321 325 330 335 334 340 345 347 349 350 350 350 348 350 351 349 349 349 349 349 350 350 349 347 346 346 337 333 337 340 343 343 340 338 337 337 338 338 339 340 341 341 341 341 340 335 332 332 336 337 339 338 339 339 338 340 340 339 338 337 336 337 338 338 339 339 338 338 338 338 339 338 337 337 335 336 338
317 316 316 314 317 316 314 312 313 316 317 320 319 319 319 318 318 317 320 318 321 324 328 334 334 339 341 345 350 350 351 350 349 350 350 349 350 349 349 349 349 348 348 347 347 343 334 330 334 336 339 341 342 341 340 339 339 340 340 340 339 339 339 336 332 330 332 336 339 338 339 339 338 338 339 340 340 340 339 337 334 335 336 336 337 338 338 338 339 339 340 338 336 336 335 334 335
317 317 316 314 315 314 312 311 313 317 318 319 318 319 317 318 318 318 319 319 321 324 330 332 334 337 340 347 349 349 351 350 350 350 350 349 350 349 350 349 348 347 347 347 347 342 333 330 331 333 335 335 338 339 340 340 340 340 339 338 336 334 331 328 329 333 337 340 341 339 339 339 339 339 338 340 340 340 340 336 333 334 336 335 335 337 338 338 338 339 339 337 335 336 335 334 333
317 317 318 314 314 312 309 310 313 316 318 318 319 318 318 318 317 318 317 319 320 321 328 331 333 335 342 350 350 350 350 350 350 350 350 350 350 349 349 348 348 347 346 347 346 342 336 331 331 331 332 331 332 334 335 336 338 338 337 333 329 327 326 329 334 337 339 341 341 340 341 340 340 339 338 339 339 340 339 336 334 333 335 336 336 336 337 338 338 339 339 338 337 337 335 333 333
317 316 318 314 310 309 308 311 313 317 318 318 318 318 319 318 318 318 318 319 320 321 325 332 335 335 343 348 350 351 350 350 350 350 350 350 350 350 349 349 348 347 347 347 346 343 336 334 334 333 332 331 331 330 329 333 336 335 332 328 326 328 331 335 338 337 338 341 340 340 341 340 339 339 339 338 338 339 338 335 334 334 334 334 336 337 338 338 339 338 338 338 337 336 334 333 333
316 315 316 313 309 310 311 311 313 317 318 317 317 318 321 320 319 318 318 319 320 320 325 334 334 338 345 348 349 351 350 349 350 350 350 350 350 349 348 348 347 347 347 347 345 344 339 338 337 334 333 330 329 327 327 331 332 330 328 328 331 334 337 337 336 336 338 340 340 340 341 340 339 339 338 337 337 338 337 336 335 335 335 333 333 335 337 337 338 338 336 336 335 334 333 332 333
316 317 316 312 313 313 313 313 314 317 316 317 317 319 322 322 321 318 319 318 318 320 325 335 334 340 345 348 350 350 350 349 350 349 350 350 349 349 348 348 347 346 348 347 345 344 342 340 338 337 335 330 328 327 325 327 328 328 330 333 335 338 338 336 336 336 337 337 339 340 341 339 338 337 337 336 337 338 337 336 335 335 335 335 333 331 332 333 335 336 335 334 334 333 332 332 332
315 317 316 314 315 314 314 313 314 314 313 318 318 319 324 324 324 321 322 321 319 321 327 335 335 343 346 350 350 349 351 350 349 349 349 349 348 348 348 348 347 347 348 347 344 343 342 340 340 340 338 336 335 332 330 329 330 332 334 336 337 338 337 336 336 335 336 337 338 339 338 337 336 335 336 336 336 336 336 336 335 335 334 336 334 331 329 329 331 332 333 333 333 332 332 332 332
315 317 317 316 313 314 314 314 315 313 313 319 317 318 323 325 326 323 324 320 321 325 332 337 335 345 347 347 348 349 351 349 349 349 349 348 347 348 347 348 347 347 347 346 344 342 341 340 342 340 340 342 341 339 338 337 337 337 336 337 339 338 336 335 334 334 336 338 338 336 335 335 334 333 334 333 334 333 334 335 336 336 335 336 333 328 327 326 326 327 328 329 330 331 332 332 332
316 317 317 315 312 312 314 315 315 313 314 319 318 317 319 325 328 326 327 322 329 335 334 338 339 343 342 340 344 348 350 349 349 348 348 348 347 348 347 347 346 347 347 345 343 343 342 340 341 341 341 342 342 341 340 340 340 340 339 339 339 336 335 334 334 334 337 338 336 335 334 334 334 333 332 332 332 332 334 335 336 336 336 335 331 326 325 325 324 324 324 324 326 329 331 331 330
316 317 317 314 311 311 314 316 315 313 316 319 318 317 319 325 329 330 332 329 336 338 337 339 339 342 338 338 345 348 350 348 348 348 348 347 347 347 347 347 346 347 346 344 343 343 342 341 341 341 341 340 341 341 340 340 339 340 340 339 339 336 336 336 335 337 337 337 335 334 334 336 336 335 334 334 332 332 334 334 335 336 336 335 329 326 325 326 325 325 325 324 325 326 327 328 329
317 316 315 313 313 314 316 318 316 317 319 318 317 318 318 325 330 331 333 332 338 339 341 340 338 343 343 343 347 349 350 348 349 348 347 348 347 347 347 347 346 345 345 343 341 341 341 342 341 340 340 339 340 340 339 338 339 341 340 339 339 338 339 338 337 337 336 335 334 335 336 337 337 337 335 335 334 334 334 333 334 335 336 335 329 326 326 326 326 326 325 325 324 325 327 328 329
317 317 314 313 315 317 318 318 318 318 318 318 318 317 318 325 331 333 331 330 335 337 338 339 339 343 345 347 349 349 349 349 349 347 348 348 347 348 346 347 346 343 342 341 340 339 341 342 341 340 340 339 339 339 338 338 339 340 338 338 339 338 338 337 336 337 336 334 333 335 336 336 338 337 336 336 336 336 334 332 333 334 334 334 329 326 327 327 326 326 326 325 324 326 330 331 331
316 316 314 315 317 318 318 317 317 317 318 318 317 317 319 325 330 333 333 332 333 335 336 337 338 340 342 346 347 348 349 349 349 348 348 348 348 347 346 346 346 343 339 339 340 339 341 341 339 340 340 340 339 339 338 338 339 339 339 338 338 337 337 337 336 337 338 335 335 336 335 336 337 336 336 337 337 336 335 333 333 333 333 334 330 327 327 327 326 327 325 325 327 330 332 332 331
315 316 314 316 316 317 317 317 316 317 317 317 317 317 318 324 328 331 332 334 333 332 333 333 334 336 340 345 346 348 349 349 349 349 349 348 348 346 346 345 342 340 338 337 339 340 340 337 337 338 339 340 339 339 339 339 341 340 339 339 337 337 336 337 336 336 337 336 337 336 334 336 337 335 334 336 337 336 335 334 334 334 335 334 332 332 332 329 329 330 328 327 331 332 332 332 331
316 315 315 316 317 317 317 317 316 316 317 316 317 317 318 321 325 327 329 331 332 329 329 331 332 335 341 345 346 347 348 348 348 350 349 348 348 347 346 343 338 337 337 337 339 340 338 336 337 337 338 339 339 340 340 338 339 339 338 337 337 336 336 337 336 336 336 335 336 336 334 335 336 335 335 336 336 335 334 335 335 335 336 336 334 335 335 333 332 334 332 330 333 333 332 331 331
316 315 316 316 317 317 317 316 316 316 316 316 317 316 317 318 320 324 326 328 329 328 328 330 331 334 340 344 346 347 347 347 348 349 350 349 347 347 344 339 336 336 337 339 339 338 338 337 338 337 338 338 338 340 339 338 337 337 337 336 338 337 335 336 334 334 334 334 335 337 336 334 335 336 336 336 336 336 334 334 335 334 334 335 335 336 335 334 333 334 334 333 333 333 333 331 330
315 316 316 317 316 316 316 317 316 315 315 316 317 316 316 317 318 321 325 326 327 328 329 330 331 335 339 342 345 347 347 347 349 349 348 344 342 343 339 335 336 336 337 339 337 336 337 339 337 337 337 336 337 339 336 337 337 336 337 337 338 336 332 333 334 334 334 334 336 337 336 334 334 335 335 335 336 336 334 334 334 333 333 333 333 335 334 334 334 333 333 333 332 331 331 331 331
315 315 316 316 316 316 316 316 316 315 315 316 316 316 316 317 317 319 322 324 326 326 325 327 331 336 340 342 345 346 345 346 348 345 341 337 339 341 336 335 336 336 338 339 337 335 336 339 338 337 338 335 337 337 334 336 338 338 337 336 336 335 332 334 334 334 335 335 336 336 335 335 335 334 335 335 335 336 336 335 334 333 333 333 333 334 335 335 335 334 333 332 331 332 331 331 331
316 316 316 316 316 316 315 315 315 316 315 316 316 316 316 317 317 317 320 324 325 324 323 325 330 335 339 344 346 346 345 346 345 339 335 335 339 341 337 336 337 338 340 340 338 336 337 339 338 338 339 337 336 337 335 336 338 337 335 334 334 335 335 335 334 334 334 334 336 336 335 335 334 335 336 335 335 336 336 335 335 334 333 333 333 334 334 334 334 333 333 331 330 332 332 331 332
317 316 315 315 316 316 316 315 315 316 315 315 315 316 316 317 316 316 318 322 323 322 322 325 328 333 338 342 345 345 344 345 339 336 337 337 340 340 339 337 338 340 340 340 340 338 338 339 339 337 338 339 337 337 336 336 337 335 333 333 334 334 334 336 336 335 335 335 336 336 335 335 335 336 337 336 335 336 336 335 335 334 333 333 332 333 332 333 333 333 332 331 331 332 332 332 332
316 315 315 315 315 316 316 315 316 315 315 315 316 316 317 317 316 316 318 321 322 321 323 324 327 332 335 339 342 343 344 343 339 338 339 340 341 341 339 339 339 340 340 341 341 339 339 339 337 337 338 340 338 337 337 336 336 335 333 333 333 334 333 335 336 336 335 336 337 336 335 335 335 336 337 336 335 335 336 335 334 333 333 333 332 333 333 333 333 332 332 331 331 333 333 332 331
315 314 314 314 315 315 315 315 315 315 315 315 316 314 315 316 316 317 321 322 322 321 324 325 327 332 335 337 340 342 343 343 342 341 341 340 341 341 340 340 341 340 340 341 340 340 340 338 335 337 338 339 338 337 337 336 336 335 333 332 334 335 334 336 337 336 336 337 338 337 336 335 335 336 337 336 335 336 335 336 335 334 333 333 332 333 333 333 333 333 333 332 332 333 332 332 331
314 313 314 313 313 313 315 315 314 315 314 315 315 310 312 316 316 318 323 324 321 321 324 326 326 332 336 337 340 342 343 343 343 342 341 340 339 341 341 339 341 341 340 340 340 340 339 337 337 338 338 337 337 336 336 336 336 335 334 334 336 337 337 338 338 337 337 338 337 336 336 336 336 337 336 336 335 335 335 336 335 334 333 333 333 332 332 331 331 332 333 332 332 332 332 331 330
313 313 313 313 310 310 315 315 314 315 314 316 315 309 311 316 317 317 322 323 321 322 324 324 326 331 336 338 341 342 343 342 343 341 339 339 339 340 340 340 340 340 339 339 339 339 338 338 339 338 337 337 338 337 337 338 337 336 335 335 338 339 338 338 338 338 337 337 337 335 335 335 336 336 336 335 335 334 334 335 334 334 334 333 332 332 331 332 332 332 332 332 332 332 332 330 329
313 311 310 311 309 310 316 315 314 315 314 316 314 309 312 316 317 318 320 321 321 322 322 324 327 331 336 338 342 343 342 341 341 340 338 339 338 339 340 339 340 339 338 337 337 338 339 338 338 338 337 338 340 339 340 340 339 339 337 337 338 339 338 337 338 337 337 336 336 336 335 335 334 336 336 335 335 334 334 334 333 333 333 332 332 332 332 333 332 331 332 332 331 332 331 331 330
313 311 308 309 309 310 314 315 316 315 315 315 313 311 312 315 317 318 321 321 321 321 321 325 328 332 337 338 341 341 340 340 339 339 339 339 339 339 339 339 338 339 337 336 337 337 337 339 338 338 338 339 339 339 340 340 340 339 339 338 338 338 337 336 335 335 334 334 335 335 335 335 334 335 336 335 335 334 333 333 333 333 333 332 332 333 333 333 332 332 332 332 331 331 330 330 329
311 311 308 310 310 309 310 313 315 315 314 314 314 313 314 317 320 320 322 321 320 320 320 325 329 334 337 337 340 341 340 339 338 340 340 339 339 338 339 339 338 339 337 334 336 337 337 339 338 338 338 338 336 337 339 339 339 339 338 337 336 335 333 332 332 333 333 332 333 333 334 334 335 335 335 335 335 334 334 334 333 333 333 332 331 332 333 332 332 333 333 332 331 331 330 330 330
310 310 309 310 311 311 310 313 315 315 314 315 314 314 314 317 321 322 323 320 320 321 320 325 329 333 336 335 337 339 340 339 339 339 339 339 340 339 338 337 338 338 335 333 335 336 337 338 338 338 338 337 334 336 338 338 338 337 337 336 334 332 331 332 332 332 332 332 331 331 332 332 333 333 334 334 334 334 334 333 334 333 332 331 331 332 333 333 333 332 332 331 330 331 331 331 331
312 312 311 309 310 311 312 315 316 315 314 314 314 314 315 315 318 321 323 320 321 322 320 325 330 333 334 335 335 339 340 339 339 340 340 340 339 339 337 337 337 335 333 334 334 336 338 337 337 337 337 337 336 337 337 337 338 337 336 334 331 331 330 331 331 330 330 330 330 330 330 331 331 332 332 333 333 333 334 333 334 333 331 331 332 332 333 334 333 331 331 331 331 331 330 331 332
315 314 313 311 310 310 314 316 316 316 314 314 315 315 315 315 316 320 321 321 322 321 322 326 331 332 333 335 335 337 341 341 341 340 341 341 339 338 337 337 337 333 332 335 335 337 338 337 337 337 336 337 337 337 337 338 337 335 333 331 330 330 330 330 330 330 330 330 329 328 329 330 330 331 331 331 332 333 333 333 334 333 332 332 332 332 332 332 332 332 332 332 331 330 329 330 331
316 314 312 311 310 311 314 316 317 317 316 315 316 315 316 316 316 317 320 322 322 321 324 328 329 330 331 335 335 335 338 340 340 340 341 341 339 338 338 338 336 332 332 335 336 337 337 336 337 337 336 336 335 336 336 336 335 333 332 331 330 329 328 329 329 329 329 328 329 329 329 329 329 330 330 330 331 332 332 333 334 334 333 332 332 332 332 332 332 332 332 331 330 329 329 330 331
316 314 311 310 311 313 315 317 318 317 316 316 317 315 316 318 318 317 321 324 325 322 323 328 329 328 330 334 336 336 339 340 339 340 342 341 340 339 338 338 336 332 332 335 336 337 336 336 336 336 335 333 332 334 334 333 333 332 332 330 329 329 328 329 328 328 327 327 329 329 329 330 328 328 328 329 329 330 330 330 332 332 333 332 331 332 332 332 332 331 331 331 330 330 329 330 332
315 313 311 310 312 312 311 315 318 317 316 316 316 317 317 319 318 319 323 326 326 324 323 327 328 329 330 333 336 337 338 341 341 341 339 337 339 340 339 339 337 333 333 335 336 337 337 337 336 335 333 331 331 332 331 332 332 331 331 331 330 330 329 328 326 326 325 326 328 328 329 330 329 328 327 327 326 328 329 329 328 330 332 332 332 332 332 332 332 331 331 332 331 331 330 330 331
315 315 312 311 313 312 312 316 318 317 318 318 318 316 315 318 319 319 324 326 325 325 324 326 328 329 331 334 337 338 339 341 341 340 337 334 336 339 340 340 339 334 333 335 335 337 338 337 335 333 333 333 330 328 329 332 334 332 333 332 330 328 326 325 325 324 324 324 325 325 327 328 328 327 326 325 325 325 326 327 327 327 330 331 331 331 331 331 332 331 331 332 331 331 332 330 330
312 315 314 314 315 315 315 318 318 315 314 317 317 312 311 316 319 320 324 326 327 328 328 327 327 329 332 335 336 338 339 340 339 337 333 334 337 340 340 340 340 336 334 334 335 336 337 337 335 332 333 334 330 328 330 332 333 333 332 330 327 326 325 325 325 324 323 323 323 324 325 326 327 327 326 326 325 325 325 326 327 326 328 329 330 330 331 331 331 330 331 332 331 330 331 331 330
311 314 315 316 316 316 316 317 316 312 313 317 317 311 309 313 318 321 325 327 327 328 330 328 328 329 331 335 336 335 336 338 337 334 333 335 339 341 339 340 341 338 335 333 334 335 334 335 334 331 332 331 330 331 332 332 332 332 330 328 327 327 326 326 326 325 324 322 322 323 324 325 326 326 326 325 326 327 327 327 327 327 327 326 327 327 328 328 327 328 329 330 331 331 331 331 330
311 315 316 314 316 318 317 317 314 313 314 318 318 313 310 311 317 321 323 326 324 325 328 328 328 329 331 333 334 333 333 336 335 334 336 337 339 340 340 340 339 338 335 332 332 333 331 332 332 331 331 330 330 331 330 330 331 331 330 329 328 328 327 326 326 324 323 322 323 323 324 325 325 325 326 325 325 326 327 327 327 326 326 325 325 325 326 326 326 326 327 328 329 331 331 330 329
313 317 317 314 315 316 317 316 314 314 314 313 315 314 311 311 317 321 322 323 321 323 325 327 329 329 332 333 332 332 332 334 334 333 336 337 339 339 339 340 339 337 334 330 331 331 331 331 331 333 333 331 332 332 330 329 330 331 330 329 328 327 325 325 324 323 323 324 324 323 323 325 325 325 325 324 324 324 325 326 326 326 326 324 324 324 325 326 327 328 328 329 331 331 330 330 329
315 318 317 316 315 316 317 316 313 313 314 312 314 314 310 311 315 319 322 321 319 323 326 327 328 328 330 332 331 333 332 333 333 333 335 338 340 340 339 339 338 336 333 330 330 331 332 332 331 332 331 331 332 333 331 329 330 330 329 328 327 325 324 323 322 322 323 324 324 324 323 324 325 325 325 324 324 323 324 324 325 325 324 323 323 324 324 325 326 326 327 328 330 331 331 330 330
316 318 316 315 316 316 317 315 313 313 314 313 314 313 310 311 315 318 321 322 322 328 328 326 327 329 331 332 332 334 335 335 335 333 335 338 340 338 336 336 336 334 332 331 330 330 332 331 329 330 330 331 332 331 331 330 329 329 329 328 327 325 324 323 323 324 323 323 323 323 324 324 325 325 324 323 323 323 323 323 323 323 322 322 323 323 323 324 324 324 325 325 327 328 329 329 330
315 317 315 313 313 313 313 312 313 314 314 312 313 314 312 310 315 319 321 323 324 326 326 325 328 330 331 333 333 334 335 335 335 333 334 337 336 332 329 330 332 331 331 332 330 329 330 329 329 330 330 331 330 329 331 331 329 328 328 329 328 326 325 324 324 325 323 323 323 323 325 325 325 324 323 321 321 322 323 322 321 321 321 323 323 322 322 321 320 321 322 323 324 325 325 326 326
316 315 314 312 311 312 312 311 312 313 313 314 313 315 313 311 317 322 323 324 324 324 324 325 327 329 330 332 332 332 332 333 334 333 333 335 331 328 328 329 330 330 331 331 329 329 330 330 330 330 330 330 328 327 328 329 329 329 328 328 328 327 325 324 324 325 324 323 323 323 324 324 323 323 321 320 321 321 322 321 320 319 321 322 322 322 321 320 319 319 320 320 321 322 322 322 324
314 313 312 311 312 313 314 312 312 312 312 314 315 315 313 312 319 325 325 324 323 324 325 325 326 327 327 328 329 330 331 332 333 333 332 334 329 328 328 327 329 330 330 329 328 329 330 331 330 329 328 328 327 326 326 327 330 330 329 329 328 327 325 323 324 323 323 322 321 322 323 322 323 322 319 318 319 319 319 319 318 318 319 320 320 321 321 320 318 317 319 319 319 319 319 319 320
314 314 314 313 312 313 313 312 311 312 312 313 316 316 312 312 320 326 326 325 323 324 325 327 328 327 325 325 327 329 332 331 332 334 335 333 330 329 328 327 329 331 330 329 329 330 330 332 331 328 328 328 326 326 326 328 331 330 328 329 328 327 325 323 323 322 322 321 321 322 322 322 322 321 320 318 317 317 317 316 316 316 317 318 319 319 319 319 318 317 318 318 317 317 317 316 317
314 315 313 312 313 313 312 312 313 312 312 313 314 315 315 318 323 326 327 326 323 323 324 325 326 327 326 327 327 329 332 333 333 336 335 332 330 329 329 328 328 330 331 331 331 331 331 331 330 328 328 327 326 326 325 327 330 329 328 328 327 327 325 322 322 321 321 321 321 321 321 321 321 320 319 317 316 316 316 315 315 315 316 316 317 317 317 318 317 316 316 316 315 315 316 315 315
315 314 312 314 317 315 311 312 314 313 312 313 313 314 317 320 323 324 325 326 325 325 324 325 327 329 329 329 329 331 333 334 336 335 332 331 330 329 328 328 327 328 331 333 332 332 331 330 329 329 329 327 325 325 324 326 328 328 327 328 327 327 325 322 321 322 321 321 320 320 321 321 321 320 319 317 316 316 316 316 315 315 315 315 316 316 316 316 316 316 315 315 314 314 315 316 316
315 313 314 315 317 316 313 312 313 313 311 311 311 313 315 315 319 323 323 326 327 327 327 329 330 331 330 330 330 331 332 333 334 333 330 331 331 329 329 329 328 328 331 333 333 333 331 330 330 329 328 328 326 327 327 327 328 328 327 329 329 328 325 321 321 322 321 320 320 319 320 320 320 320 319 318 317 317 317 317 316 316 316 316 315 315 316 316 315 315 315 315 314 315 315 316 316
315 315 317 317 313 313 312 312 312 313 313 311 311 313 312 312 317 322 323 327 329 328 329 330 331 332 332 331 330 330 332 332 332 331 330 331 331 330 330 330 330 330 331 332 332 332 332 331 331 330 329 328 328 329 329 329 329 327 326 328 329 327 326 322 321 322 321 321 320 319 319 320 320 319 318 318 317 317 318 318 318 317 317 316 316 316 316 315 315 315 315 316 315 315 315 315 316
314 314 316 316 314 313 312 312 312 312 313 312 311 312 314 317 322 322 323 328 330 328 329 330 330 331 331 331 331 330 332 332 330 329 329 329 330 330 330 330 330 330 331 331 331 330 330 330 331 330 330 329 329 329 329 329 329 328 327 329 329 328 327 323 320 321 321 321 322 322 321 320 319 318 318 318 317 317 318 318 318 318 317 318 318 317 317 316 316 315 315 315 315 314 314 314 314
313 312 312 314 315 314 314 314 313 311 312 313 311 313 319 325 327 326 326 328 329 328 329 330 330 331 330 331 330 329 329 329 329 328 327 327 329 330 329 329 330 330 330 330 330 330 330 329 330 330 329 329 329 329 329 328 329 329 330 330 329 328 327 324 320 320 322 322 322 322 322 321 319 318 318 318 317 318 319 318 318 318 318 318 318 319 318 317 317 316 315 316 316 315 314 314 313
314 313 312 313 313 313 313 314 313 312 312 312 311 315 324 326 326 327 328 328 328 327 327 329 330 330 329 330 329 328 328 327 328 327 326 326 328 329 329 328 328 329 329 329 329 329 330 330 330 330 329 329 329 329 329 328 328 329 329 329 329 329 328 326 321 319 321 321 319 319 321 322 321 318 318 318 317 317 318 318 317 318 318 318 318 319 319 319 318 317 317 316 316 316 315 315 315
Wind_Speed
6 5 5 7 9 8 8 7 6 5 7 9 9 10 9 10 5 2 5 4 3 4 3 3 1 3 4 4 4 6 12 9 7 3 2 5 11 14 16 21 24 23 22 22 24 26 24 24 24 24 24 25 25 26 27 27 27 27 26 26 26 28 26 24 22 21 20 18 16 15 15 14 13 13 14 15 16 15 13 12 11 10 10 10 9 10 11 10 11 12 11 11 11 11 11 11 10
6 7 7 8 10 8 6 6 7 6 8 9 9 11 7 5 5 10 8 1 1 3 2 3 3 3 3 5 5 1 9 13 11 8 6 10 14 15 19 23 23 22 22 22 24 23 22 23 24 25 25 25 26 26 27 27 27 27 26 27 27 27 24 23 22 21 20 18 17 16 15 14 14 14 14 14 15 15 14 12 11 10 10 9 9 10 10 10 10 11 10 11 11 11 11 11 10
7 8 8 9 9 8 5 5 8 7 8 9 8 12 7 5 5 6 2 2 3 2 2 3 4 3 4 6 2 1 5 12 12 11 7 12 13 14 21 22 22 22 21 23 22 22 21 22 25 25 25 26 26 27 28 28 27 27 28 27 27 25 23 22 21 20 19 18 17 16 16 15 15 15 15 15 14 14 14 13 11 10 10 9 9 10 10 10 10 10 10 11 11 11 11 10 9
7 9 11 9 7 6 6 6 8 9 9 7 7 10 8 5 3 5 4 2 1 3 5 4 4 0 4 3 4 4 7 9 11 11 7 10 13 16 21 22 23 21 21 22 22 22 21 24 26 26 26 26 27 27 28 29 28 29 29 28 26 24 22 22 21 20 19 18 17 17 17 16 16 16 16 15 14 13 13 12 11 10 10 9 10 9 10 10 10 10 10 11 11 10 11 10 10
7 10 12 10 5 3 5 6 7 9 9 7 5 4 6 7 4 7 4 2 3 5 4 4 4 2 2 4 3 3 6 6 10 11 9 12 15 20 23 22 22 20 20 21 21 21 22 26 27 25 26 27 28 28 29 29 29 29 28 28 26 23 22 21 20 19 19 18 18 18 17 16 16 16 16 15 14 13 13 12 11 11 10 10 10 9 10 10 10 10 10 10 10 11 11 10 10
9 10 11 10 6 4 5 7 8 9 10 11 6 2 3 3 6 5 4 4 5 5 5 5 4 6 4 7 6 6 6 4 9 10 11 15 17 21 23 22 21 20 20 20 21 20 23 28 27 26 26 27 29 29 29 30 29 29 28 26 24 23 22 21 20 19 19 19 18 17 16 16 15 15 16 16 14 13 13 12 12 11 10 10 10 10 10 10 10 10 9 10 10 10 11 11 9
11 9 7 8 6 4 7 8 9 9 10 13 8 3 3 4 5 3 4 5 7 7 8 6 5 5 5 5 6 8 8 5 7 10 13 18 20 22 22 20 20 21 20 20 20 21 25 28 28 28 26 26 28 29 29 29 29 28 27 25 23 22 21 20 20 20 19 18 17 17 16 16 15 16 17 17 15 14 13 12 11 11 10 10 10 10 10 10 10 9 9 10 10 9 10 9 7
12 8 4 6 6 5 8 9 9 9 7 10 8 1 4 4 2 4 5 6 5 8 10 7 7 6 5 5 5 6 9 9 9 14 17 20 21 21 20 18 19 20 20 20 21 24 28 28 28 28 28 26 26 27 28 29 28 27 26 24 23 22 21 21 21 20 18 16 16 16 16 16 16 16 17 17 16 14 12 11 10 10 10 10 10 10 10 10 10 10 10 11 10 9 8 7 6
12 9 4 7 7 6 8 9 10 11 7 6 6 3 1 3 6 7 5 6 4 5 9 9 9 7 6 8 7 6 8 10 14 17 19 20 21 20 18 17 17 18 20 21 23 26 28 28 28 27 27 28 27 27 27 28 27 26 25 24 23 22 22 22 21 19 17 15 15 16 16 16 16 16 16 16 16 15 12 10 10 10 10 10 11 11 10 10 11 11 11 10 9 8 6 5 4
9 7 6 6 7 8 8 9 9 10 10 5 4 3 0 5 8 8 7 9 6 6 8 9 8 7 8 9 7 6 8 10 15 17 19 20 20 19 17 17 17 18 20 22 24 26 27 27 27 26 26 27 28 27 27 27 26 26 25 24 24 23 22 21 20 17 16 15 14 14 14 15 16 15 15 15 15 14 12 10 9 9 10 10 11 11 10 9 10 11 10 9 8 8 6 5 4
7 6 6 6 8 9 8 8 8 10 9 3 3 3 1 5 8 8 9 9 7 8 7 7 8 9 11 8 5 7 10 12 15 17 19 19 18 17 17 17 16 19 21 22 23 24 27 27 26 26 26 25 26 26 26 26 26 25 25 25 24 23 22 20 18 17 16 14 13 13 13 15 15 15 14 13 13 13 11 9 9 9 9 9 10 11 10 9 9 9 9 8 7 7 6 5 4
7 7 6 7 8 8 8 9 8 9 6 5 6 5 2 6 7 9 10 10 9 10 7 7 8 7 8 6 5 7 12 13 15 17 18 18 17 17 17 17 16 19 20 21 21 23 25 24 24 25 25 25 25 25 25 25 25 25 24 24 24 23 21 20 19 18 16 14 13 13 13 15 14 14 13 12 12 12 11 10 10 10 9 8 9 9 9 9 9 9 9 8 7 7 5 5 5
8 7 7 7 8 9 9 9 6 4 3 6 6 6 2 7 8 9 9 11 10 11 9 8 7 8 5 4 7 7 12 14 16 16 16 17 16 16 16 17 18 20 20 20 21 22 23 23 23 22 23 24 23 24 24 25 25 25 24 23 22 22 21 21 20 19 17 15 15 14 13 14 13 13 12 12 12 12 11 10 10 9 9 8 8 8 8 9 8 8 8 7 7 7 7 6 5
8 7 7 7 8 11 9 9 6 5 6 6 4 4 3 5 5 7 8 11 12 10 8 8 7 10 7 5 8 7 11 16 17 17 16 16 16 15 15 18 19 21 20 19 22 22 21 20 21 21 22 21 21 22 23 23 24 24 23 22 22 21 21 20 20 19 17 16 15 16 14 13 13 12 12 12 12 11 10 9 10 9 8 8 7 7 7 8 8 7 8 7 7 7 8 7 6
9 6 7 7 8 10 7 8 7 6 4 6 6 2 5 3 4 7 10 13 9 4 8 7 6 6 7 5 7 9 14 18 18 17 17 16 16 15 16 18 19 20 19 18 20 20 21 19 20 22 20 19 19 21 22 22 21 22 22 21 21 20 20 19 19 18 16 16 15 14 14 13 12 12 12 12 11 9 9 9 10 9 8 8 6 6 6 6 7 7 7 7 8 8 8 8 7
8 6 6 7 9 10 7 8 7 6 2 6 5 4 6 5 4 8 7 9 4 7 7 7 1 4 10 8 8 15 19 20 19 18 17 17 16 15 17 18 17 17 17 17 18 18 21 21 21 20 19 18 17 19 20 20 19 19 20 19 18 18 18 17 17 16 15 15 14 13 13 12 12 11 11 11 10 8 8 9 9 9 9 8 7 6 6 6 6 6 7 7 8 8 8 8 7
6 7 7 7 9 9 6 7 6 5 3 5 2 3 6 5 5 7 3 5 5 10 6 5 5 5 7 7 16 24 23 21 20 19 18 17 16 16 17 18 18 17 14 14 17 21 22 21 22 19 17 19 18 17 17 19 20 18 17 16 16 16 16 15 14 14 14 15 14 13 13 11 11 11 11 11 10 9 9 9 9 9 8 8 7 7 6 6 6 6 6 7 8 8 8 7 5
7 6 9 8 9 9 7 5 5 3 3 4 2 2 7 4 7 5 5 7 6 10 5 4 5 9 8 12 23 27 24 22 21 20 19 17 16 16 16 16 17 17 15 14 17 22 21 17 19 18 15 18 20 18 17 19 18 16 15 15 15 15 14 13 13 13 14 15 14 14 13 12 11 11 11 11 10 10 10 10 9 9 9 8 7 8 7 6 6 6 6 7 7 8 9 8 5
8 7 9 8 10 8 5 4 1 1 3 3 3 3 5 2 6 5 9 11 10 11 8 6 7 11 11 16 23 24 23 21 20 19 18 16 16 15 15 15 15 16 15 16 17 20 20 16 16 16 15 17 19 18 18 19 17 16 16 16 15 15 15 13 13 13 13 15 15 14 13 13 11 11 12 11 10 10 10 11 10 9 9 8 7 8 8 7 6 5 6 6 7 7 8 8 7
9 9 9 9 13 9 1 3 4 3 3 1 2 1 3 2 4 4 7 11 13 12 9 8 7 9 11 16 20 21 21 20 20 19 17 16 15 15 14 13 12 13 14 15 16 19 21 19 17 17 17 18 20 19 19 17 15 16 16 15 14 14 15 14 14 14 14 15 15 12 12 14 13 12 12 12 10 10 10 11 10 10 9 9 8 8 8 8 7 6 6 7 7 6 7 7 7
9 10 10 11 11 8 2 3 5 0 3 4 2 3 4 5 5 6 8 9 10 10 11 12 10 10 13 16 17 19 19 18 18 18 17 16 14 13 12 12 11 9 11 13 17 19 22 23 21 21 20 19 22 22 19 16 14 14 14 14 13 12 14 14 15 14 14 15 12 12 13 14 14 12 10 10 9 9 10 9 9 9 9 9 8 7 8 8 8 8 8 8 7 7 6 5 4
8 12 15 15 8 6 4 4 2 1 3 4 4 6 2 4 7 7 9 9 7 8 11 12 14 13 13 16 16 16 15 15 16 16 16 15 12 11 9 12 15 11 11 13 12 8 15 23 24 22 21 19 20 19 17 17 17 15 14 13 11 11 11 12 12 11 12 11 9 13 16 13 13 13 9 8 8 8 9 9 9 9 9 9 10 8 8 8 8 9 10 10 8 7 6 5 4
10 12 13 16 11 6 5 3 3 3 6 7 6 3 2 4 6 5 9 8 5 6 6 5 11 12 11 15 15 15 15 14 14 14 16 13 10 9 9 16 18 14 15 10 4 3 9 17 20 21 20 20 19 16 15 18 18 16 14 12 10 11 10 9 9 9 9 9 10 11 14 13 11 12 12 12 10 8 8 9 9 10 12 12 12 10 8 8 10 10 10 10 7 7 7 6 6
13 12 12 15 12 9 7 1 4 6 7 7 4 3 4 9 4 5 9 6 5 5 5 2 6 11 11 13 14 14 14 13 14 14 10 7 7 8 15 19 17 17 13 7 7 9 12 15 18 19 19 22 22 17 17 19 18 16 13 11 9 10 10 8 9 9 9 10 9 8 7 10 9 10 12 12 10 8 7 9 8 9 11 12 12 10 8 10 12 11 10 10 8 8 8 7 7
14 14 12 10 9 11 10 7 7 7 7 6 6 7 8 9 3 4 9 7 6 4 6 6 5 10 11 11 12 12 12 13 12 9 13 11 7 12 17 15 16 15 12 9 11 13 14 17 19 18 17 20 21 19 19 20 19 16 13 11 9 9 9 7 9 10 10 11 8 4 3 6 8 8 7 6 5 4 6 7 7 8 10 9 10 9 9 11 12 12 10 10 10 8 8 7 7
12 16 15 9 8 10 10 11 11 8 7 7 10 11 10 9 3 5 10 8 8 6 7 8 7 9 10 10 10 10 11 10 9 15 15 10 10 14 16 14 14 13 14 14 14 15 16 16 16 16 16 17 19 19 18 17 15 14 14 11 9 8 7 6 9 12 11 9 7 5 1 2 5 5 5 3 2 1 3 5 5 8 10 9 9 8 8 9 10 10 9 11 13 10 8 8 7
7 12 17 14 10 9 10 13 13 10 10 10 11 12 12 9 4 9 10 9 8 8 9 8 8 9 9 9 9 9 10 10 16 15 14 14 13 13 15 15 16 16 18 17 14 17 18 14 15 15 15 15 16 18 17 15 14 13 13 11 10 9 7 6 9 12 7 2 3 4 1 1 3 2 4 4 3 3 3 4 5 6 8 9 10 8 5 7 8 8 10 13 14 10 6 8 8
8 8 13 16 13 10 11 12 12 11 10 10 11 13 14 10 9 13 10 11 9 9 9 9 9 9 10 9 9 9 8 13 16 14 12 13 14 14 16 19 18 19 20 18 15 17 16 14 15 15 14 14 13 15 15 15 15 12 10 10 10 8 7 8 9 7 4 2 3 3 1 3 4 1 3 4 5 5 4 5 5 4 5 6 7 5 3 5 8 8 10 11 12 11 6 3 6
12 8 9 14 14 13 14 13 12 11 9 11 12 13 14 11 12 15 8 10 10 10 10 10 10 8 10 10 9 7 8 12 13 12 13 14 15 16 18 19 17 18 19 16 14 16 14 14 15 14 13 12 12 13 13 14 16 14 10 8 9 7 7 8 6 4 3 4 4 3 3 5 5 2 2 4 5 5 5 5 4 4 4 4 4 4 4 5 7 7 9 8 6 7 8 5 5
12 10 9 10 12 13 16 15 14 14 11 12 12 10 13 13 16 17 10 9 10 11 11 9 9 8 9 10 8 9 8 10 10 12 16 16 16 16 17 16 15 17 17 15 14 14 14 12 13 13 13 13 12 12 11 13 15 14 13 11 10 9 7 7 6 4 4 4 4 4 4 5 4 3 3 4 4 5 5 4 4 3 3 3 3 4 6 6 7 7 7 8 4 3 6 5 8
11 11 9 9 9 10 15 17 16 16 11 11 12 8 11 13 18 19 14 13 12 12 12 10 9 8 9 9 9 9 8 9 11 14 17 18 15 13 15 15 15 15 16 16 15 14 13 12 13 13 13 13 11 10 10 10 11 12 13 14 12 10 8 7 7 5 4 4 4 4 5 5 4 3 3 3 3 4 4 3 3 2 3 3 3 4 6 4 5 6 7 8 5 5 8 7 12
10 10 9 10 9 10 14 18 17 16 12 13 13 8 9 14 20 22 16 15 15 13 13 11 9 9 9 10 11 9 9 11 13 15 16 16 11 11 15 17 17 16 16 18 16 14 13 13 13 14 14 13 11 9 9 9 9 9 10 11 10 10 8 7 7 6 5 6 5 5 5 4 3 3 2 3 4 3 4 4 4 3 3 4 3 3 4 3 3 6 7 7 6 7 9 8 10
9 9 10 10 11 12 10 15 16 16 13 15 15 10 9 13 13 18 17 15 16 14 13 12 11 9 9 10 11 9 10 11 12 14 15 13 11 11 14 18 19 17 16 18 17 16 15 14 13 15 15 13 11 10 9 10 9 9 8 9 9 9 8 7 7 6 6 6 6 6 5 4 3 3 3 4 4 4 4 4 3 4 5 5 4 3 3 5 5 6 6 6 6 6 9 9 10
8 9 10 10 13 13 10 12 14 17 16 15 16 14 12 4 3 12 14 14 15 14 13 12 10 9 9 10 12 10 10 10 11 13 14 12 11 12 12 16 18 17 15 17 18 18 16 15 14 14 14 11 12 12 10 10 9 9 8 8 8 8 7 6 6 6 5 5 5 6 6 4 3 4 3 3 4 3 3 3 3 4 5 4 4 4 4 5 5 5 5 4 7 7 8 10 10
9 10 9 11 13 13 12 11 13 17 18 15 15 15 16 8 8 10 11 12 13 14 13 11 11 10 10 11 12 11 11 11 12 14 14 11 10 12 12 14 18 15 15 18 20 20 16 14 14 13 12 11 13 12 11 11 10 9 8 8 8 7 6 6 5 6 6 5 6 6 5 5 3 3 3 3 4 3 3 3 2 3 4 5 4 5 5 5 5 4 4 4 7 7 8 11 9
11 11 11 11 10 10 14 10 11 15 15 14 14 13 15 15 11 12 11 11 11 12 12 10 10 10 10 12 12 11 12 12 14 16 16 13 12 12 12 14 17 15 18 19 22 20 17 15 14 13 11 11 13 13 12 11 10 9 8 8 7 7 7 7 6 6 6 6 6 5 5 5 4 3 3 3 3 3 3 3 2 2 3 5 4 4 5 6 5 4 4 4 6 6 10 12 8
8 9 10 13 11 9 13 11 10 10 10 12 16 14 15 16 14 12 12 12 12 13 13 10 10 10 11 12 13 12 11 11 14 17 15 13 13 12 12 13 15 18 19 20 20 17 17 15 13 12 11 12 14 14 14 12 10 10 9 9 8 7 8 7 7 6 6 6 6 6 5 5 4 4 4 3 3 3 3 4 4 3 2 3 3 3 3 4 4 4 3 3 5 7 11 9 4
7 8 7 10 11 8 14 11 10 9 8 9 13 15 15 13 14 13 13 12 12 13 13 12 13 12 11 12 14 12 9 10 13 13 13 14 13 12 12 13 16 21 19 20 19 16 16 15 14 13 11 14 17 16 16 13 10 10 10 10 9 9 9 8 8 7 6 7 6 6 6 5 5 4 4 4 3 3 3 3 4 4 4 3 3 2 1 2 2 4 3 3 6 8 8 3 2
8 8 7 7 8 8 11 9 7 7 6 8 12 13 12 12 15 13 12 11 11 12 13 12 13 12 11 12 13 11 9 11 13 12 12 12 11 12 13 12 17 24 21 21 18 15 16 16 15 13 13 17 17 16 16 12 10 10 10 10 10 9 9 8 8 8 7 8 7 6 6 5 5 5 4 4 4 4 3 3 3 3 4 3 4 3 1 1 2 4 4 4 6 5 4 2 1
9 8 8 7 8 10 8 8 8 8 7 9 11 10 10 11 13 10 10 11 10 11 14 13 13 12 11 12 13 12 13 13 14 12 9 7 8 12 12 12 17 25 23 21 15 13 15 15 15 15 16 19 17 15 14 11 10 11 9 9 9 9 10 10 9 9 7 8 7 6 6 5 5 5 4 4 4 4 3 3 3 3 3 3 4 4 2 2 1 3 2 2 4 2 1 3 2
10 11 10 9 10 12 6 5 8 8 8 10 10 7 9 10 12 10 9 11 10 11 13 13 13 12 10 11 13 13 13 13 13 11 10 7 11 13 13 14 16 24 24 21 16 14 13 14 17 19 18 19 17 15 15 12 10 13 12 11 11 11 11 10 9 8 7 7 6 6 6 5 5 5 4 4 4 4 3 3 2 3 3 3 4 4 2 2 2 2 2 2 3 1 2 2 3
10 12 14 13 11 11 7 7 7 6 8 11 10 8 8 10 13 12 10 10 11 10 12 14 14 13 11 10 11 12 10 11 10 11 11 12 15 16 16 16 15 20 23 20 18 17 13 11 14 17 15 14 14 16 18 15 13 13 13 12 12 12 11 9 9 8 7 7 6 7 6 6 5 5 5 5 5 4 4 3 2 3 3 3 3 2 2 2 1 1 1 1 1 1 2 2 2
8 11 16 17 13 11 9 9 8 7 5 8 13 10 6 9 13 14 12 12 13 13 12 15 14 13 12 10 10 10 10 9 7 10 13 14 16 18 17 16 15 16 20 19 17 16 12 11 13 15 13 12 12 13 15 15 14 12 12 12 11 11 11 10 9 8 8 7 7 7 6 6 6 6 6 5 5 5 4 4 4 4 4 4 4 4 4 3 3 3 2 2 2 1 1 2 1
8 7 14 16 14 11 9 8 8 7 3 4 12 11 7 6 9 13 15 14 16 16 14 15 13 13 12 11 10 10 10 10 9 9 13 13 15 18 17 14 13 13 18 17 15 13 11 10 13 16 17 17 14 9 8 10 12 12 11 10 10 10 11 11 10 9 9 9 8 7 7 7 7 7 6 5 5 5 5 5 5 5 6 5 5 5 5 4 5 5 5 4 4 4 3 3 2
7 4 10 13 14 13 10 10 9 7 5 5 10 11 8 6 7 12 15 14 16 17 16 14 13 13 12 12 10 9 9 9 11 11 13 12 14 16 16 13 12 14 17 17 15 12 9 8 11 15 16 18 17 13 8 6 9 11 10 9 10 10 11 11 10 10 10 9 9 8 7 7 7 7 7 6 5 5 5 6 6 7 7 6 5 6 6 6 7 7 7 7 6 5 5 7 7
4 4 9 10 12 13 10 10 8 7 7 7 9 11 8 6 7 10 11 12 14 13 13 12 10 10 10 12 11 10 9 8 12 13 13 14 14 12 12 10 12 15 18 20 19 16 11 8 10 12 12 13 14 15 13 7 6 8 8 9 10 11 11 10 10 10 10 10 9 8 8 8 8 7 7 6 6 5 5 5 6 6 6 6 6 7 7 8 9 9 10 9 8 7 7 7 8
4 4 9 8 8 9 8 8 7 6 8 9 9 11 10 6 7 9 9 10 10 8 7 9 10 11 10 11 11 11 11 10 13 15 14 15 11 5 7 7 11 15 19 23 24 20 15 11 13 13 12 13 13 12 11 9 8 7 6 9 10 11 11 10 10 10 10 10 9 9 8 8 8 8 7 7 7 6 6 5 6 6 7 7 8 7 8 8 9 9 9 10 10 9 9 8 8
6 6 9 8 7 7 7 7 6 6 7 9 10 11 11 7 4 7 11 10 7 8 9 9 10 11 10 9 9 10 10 9 10 11 13 13 6 10 13 14 16 19 21 25 28 26 23 21 20 18 16 18 20 17 12 10 10 9 8 9 10 10 10 10 10 10 10 10 10 9 9 9 9 9 8 7 7 7 7 6 6 7 8 9 9 8 9 9 9 9 9 10 10 10 10 10 10
8 9 9 7 6 6 7 7 6 8 6 6 8 10 10 6 2 4 7 8 5 5 8 8 8 11 11 9 10 10 9 8 6 7 9 9 10 11 14 17 19 21 21 25 30 29 26 27 28 25 23 24 25 22 17 14 11 10 11 10 10 10 10 10 10 10 10 10 10 10 10 10 10 9 9 8 8 8 7 7 7 8 8 9 9 9 9 9 9 9 10 10 10 10 10 10 10
9 9 8 7 6 6 7 7 7 8 6 5 6 6 7 7 6 9 7 6 4 4 5 5 8 10 12 12 12 10 9 8 6 6 4 10 15 15 14 13 13 17 19 22 26 25 23 24 26 28 27 26 26 24 22 18 12 10 12 12 10 10 10 10 10 10 10 9 10 10 10 10 10 10 10 9 8 8 8 8 8 8 9 9 9 9 9 9 9 10 10 10 11 10 10 10 10
10 10 8 7 6 5 6 6 5 6 5 7 7 5 6 6 5 9 10 10 7 4 3 5 6 8 11 12 13 10 7 6 5 4 6 14 19 19 16 13 12 17 20 21 22 23 22 20 22 28 28 27 28 25 23 19 12 10 13 11 10 10 10 10 10 9 10 9 10 10 10 11 11 11 11 10 9 9 9 8 8 9 9 9 9 9 9 9 10 10 10 10 10 10 10 10 11
9 9 9 8 7 6 4 2 1 2 4 5 7 4 3 3 3 5 8 12 13 10 8 8 8 10 10 10 11 9 7 6 5 5 12 16 18 19 18 15 13 15 18 19 21 21 22 22 24 27 27 28 29 25 23 19 13 11 12 12 11 10 10 10 9 10 10 10 10 10 10 11 11 12 12 12 10 9 9 9 9 9 9 9 9 9 9 9 9 10 10 10 10 9 10 10 10
5 7 9 7 6 6 5 3 3 1 5 4 5 5 4 6 4 3 5 8 12 13 11 8 7 8 10 11 11 9 8 8 6 9 13 14 15 16 15 13 12 11 10 12 16 16 19 22 22 21 21 23 24 22 20 18 15 13 13 13 12 11 11 10 10 11 10 10 10 9 10 10 11 12 12 12 12 10 9 9 9 9 9 9 9 9 10 10 9 10 10 10 10 9 9 9 9
5 6 8 6 4 5 5 4 3 5 7 6 6 7 7 6 5 8 11 9 9 10 9 8 7 8 9 10 11 11 11 11 11 13 16 14 13 13 13 11 10 8 4 6 10 11 12 15 16 16 15 17 17 15 14 14 14 13 14 13 12 12 11 11 11 11 11 10 10 10 10 10 11 11 12 12 13 11 10 9 9 9 9 9 9 10 10 9 10 10 10 9 9 8 8 9 8
10 5 5 6 5 5 5 4 4 6 7 6 7 8 8 5 4 10 13 10 9 9 8 9 7 7 8 10 12 13 13 13 12 13 14 13 13 14 14 13 10 7 5 5 7 8 8 10 11 13 13 14 13 11 11 11 12 13 13 13 12 12 11 12 12 12 11 11 10 10 11 11 11 11 12 13 13 12 11 10 9 9 9 9 9 9 9 9 9 9 9 9 8 8 8 8 8
12 8 6 7 5 5 5 4 5 7 6 6 7 8 5 2 2 7 10 8 9 9 7 8 7 8 9 9 11 12 12 11 11 11 12 11 12 13 15 15 10 8 9 10 8 7 7 7 9 11 11 12 11 11 10 11 12 12 12 13 12 12 12 12 13 12 12 11 10 10 11 11 11 11 12 13 13 13 12 10 10 10 9 9 8 8 8 8 8 8 8 8 7 7 7 7 6
10 9 8 7 5 4 5 5 5 6 6 5 7 6 3 5 7 5 9 8 9 9 8 8 8 9 10 10 10 9 10 10 11 11 11 10 10 11 13 14 12 9 10 12 12 9 7 8 10 12 12 11 11 10 9 10 11 11 11 12 11 12 12 12 14 14 12 11 11 11 10 10 11 11 12 13 13 13 13 11 11 10 9 9 8 8 8 7 7 7 7 7 6 5 6 6 5
7 9 10 10 8 6 6 7 6 6 6 5 6 3 4 4 6 5 9 8 9 10 9 9 9 10 11 11 10 10 10 10 10 10 10 9 10 12 14 14 14 12 10 10 12 11 11 12 13 14 14 13 12 11 11 10 10 10 11 11 11 11 12 12 14 14 13 13 12 12 11 10 11 11 12 12 12 13 13 12 12 11 10 10 9 9 8 7 7 7 6 6 5 4 5 5 4
Wind_Direction
209 223 232 229 228 228 216 217 233 207 225 249 240 245 237 225 236 278 228 191 248 192 194 277 208 276 280 297 308 47 43 28 16 14 105 114 139 131 134 135 132 137 139 139 146 154 156 157 156 156 160 160 161 162 160 160 161 161 161 157 155 155 154 153 151 151 149 145 142 140 139 136 132 129 127 130 133 132 130 129 127 128 131 131 132 131 132 133 124 120 116 114 114 112 112 111 106
212 218 225 224 222 229 221 203 245 222 209 243 236 247 240 177 221 242 239 242 9 86 156 242 189 231 290 306 300 78 64 55 57 71 93 127 130 124 134 137 138 139 139 142 145 148 150 155 154 155 159 159 161 160 159 158 158 160 159 156 156 157 155 153 153 153 151 146 143 142 140 136 133 130 128 129 134 136 133 130 130 131 135 134 132 133 134 132 127 125 124 118 117 116 114 114 111
223 217 206 209 215 232 243 207 239 243 218 231 230 236 220 174 225 215 202 29 45 61 196 183 172 192 230 227 230 181 84 70 79 89 111 139 127 129 138 136 139 139 139 143 146 147 147 154 155 155 158 159 160 159 157 156 156 158 157 157 157 157 155 154 155 154 151 148 146 144 140 136 135 132 130 129 133 136 136 134 133 133 132 133 131 132 134 134 131 129 127 122 119 118 117 116 114
225 222 205 205 209 218 239 225 229 248 241 233 235 224 196 207 219 115 107 75 106 215 211 174 154 75 298 210 119 77 82 77 93 106 127 134 129 141 140 135 139 138 140 146 149 148 150 157 157 156 157 157 159 157 157 157 157 156 157 158 158 157 156 156 157 154 151 149 148 146 141 137 134 132 131 132 133 133 134 133 131 132 131 132 132 133 136 136 133 132 129 124 123 119 118 117 113
225 225 220 227 224 220 234 234 229 241 250 249 252 194 176 205 142 113 137 146 195 217 221 199 149 145 8 54 80 98 98 97 102 113 124 121 136 145 139 137 140 141 144 148 149 148 155 159 157 155 156 157 156 155 156 158 158 157 158 158 159 159 157 158 157 154 151 150 150 146 141 136 134 133 135 138 135 131 130 129 131 132 132 133 135 137 138 139 136 135 134 131 128 123 121 116 109
223 217 221 240 260 298 251 233 229 233 246 258 284 47 146 158 106 127 163 173 213 214 217 212 168 162 125 67 57 64 76 111 110 111 126 131 144 145 141 141 143 144 146 150 148 148 156 159 158 155 154 156 156 156 157 158 158 159 159 159 160 160 160 159 155 155 152 151 150 146 142 140 141 140 142 141 136 134 133 135 139 139 136 136 137 137 139 141 141 141 140 136 134 132 130 122 116
211 202 205 230 251 270 244 238 232 234 234 244 274 38 77 53 79 186 202 201 207 200 214 207 168 158 136 111 81 70 59 59 121 128 136 141 143 145 145 145 146 146 148 152 147 148 156 160 160 159 157 156 157 159 160 160 161 161 162 162 162 162 160 158 156 155 153 152 151 150 149 147 147 147 146 143 140 139 138 138 142 144 143 139 139 139 142 142 144 149 142 140 144 143 139 133 132
217 212 193 218 231 215 232 243 237 247 219 219 255 36 67 16 333 246 225 216 203 187 197 189 185 183 155 137 91 91 75 60 106 127 136 142 143 145 147 149 151 149 149 147 142 150 159 161 160 162 162 160 159 160 161 163 164 164 165 164 163 162 159 158 156 154 153 153 154 156 153 149 149 151 147 144 143 141 137 135 138 144 143 142 145 143 145 146 150 154 144 147 155 151 149 146 138
221 221 208 220 239 220 228 242 236 248 224 196 236 229 69 275 268 267 241 231 230 208 197 180 200 202 141 118 104 118 94 81 108 124 137 143 144 146 150 154 153 150 145 141 143 152 159 161 161 162 163 164 164 163 164 164 165 166 166 165 163 160 157 157 155 154 153 153 155 156 152 149 151 153 147 143 144 142 137 133 134 140 141 144 147 146 151 156 161 161 152 153 157 153 151 136 128
212 216 227 223 243 236 227 237 233 240 233 212 218 207 294 241 246 253 242 235 218 228 210 171 201 198 126 112 115 120 106 113 122 128 139 142 146 150 156 156 152 148 141 142 146 150 156 161 163 164 163 164 165 166 166 165 167 167 166 162 159 158 157 156 154 153 152 153 155 151 149 149 149 150 146 144 144 142 139 134 135 139 141 145 148 151 158 160 161 161 153 152 156 154 145 118 122
211 208 237 239 237 242 235 234 228 230 223 204 212 186 215 237 243 244 240 245 220 226 206 155 207 181 131 126 123 110 118 135 133 134 142 142 148 154 157 154 150 146 142 146 145 148 155 159 162 164 163 161 162 162 163 165 166 164 162 159 158 158 156 153 152 153 155 153 152 148 147 145 142 145 147 144 141 141 140 136 140 142 141 146 151 152 155 153 152 157 156 158 163 161 153 137 149
225 204 222 240 236 242 241 240 233 223 187 173 207 161 180 238 238 237 230 235 225 226 188 155 213 164 132 143 122 127 139 146 139 137 143 143 153 158 157 152 145 143 145 147 144 146 152 156 161 162 163 162 160 159 159 160 161 160 160 160 160 158 155 156 157 158 158 152 150 148 145 143 139 143 145 142 141 143 145 145 147 146 142 146 157 159 157 158 156 164 171 173 175 180 182 168 171
233 223 222 236 246 251 246 252 251 243 203 201 195 119 188 240 229 234 234 230 221 223 180 172 211 136 133 150 120 146 148 146 141 142 146 147 157 157 154 149 141 143 146 145 143 145 148 152 157 161 162 161 160 159 159 159 159 160 162 164 163 160 160 162 162 162 163 159 152 147 146 143 139 143 145 146 148 151 154 154 155 152 146 147 162 168 167 174 172 173 181 184 182 190 191 176 172
231 240 244 245 247 254 258 259 247 249 244 202 157 109 219 237 247 242 245 238 220 220 158 165 213 128 125 140 131 164 151 147 146 147 151 152 157 157 155 143 140 147 145 145 144 143 148 150 153 160 161 158 159 157 157 160 162 164 167 169 166 165 164 165 165 164 167 161 150 145 147 144 141 148 151 153 153 156 160 158 161 160 154 153 165 171 171 184 190 190 191 192 189 189 186 177 170
233 249 257 257 252 252 250 252 255 258 237 135 133 184 225 210 259 242 233 239 213 171 125 154 238 144 162 188 160 167 150 151 151 151 153 153 158 159 155 141 141 148 143 145 142 142 147 149 154 159 158 158 158 155 157 159 164 168 170 170 167 167 166 168 168 166 166 153 145 144 145 145 147 152 153 154 153 155 157 157 166 166 160 162 171 175 174 182 192 199 197 195 195 190 187 181 172
237 259 258 253 252 251 231 229 250 260 169 112 138 188 223 182 232 249 232 248 160 129 167 168 174 146 191 199 152 152 150 152 152 152 151 154 161 160 156 144 141 145 146 145 139 144 150 153 160 159 158 162 158 155 154 155 163 168 169 167 164 165 167 169 168 165 158 144 142 145 143 145 148 152 153 149 148 152 156 158 164 166 165 170 176 174 171 174 176 181 182 180 181 179 181 180 172
230 247 251 243 242 248 238 214 223 250 114 115 144 177 238 173 188 258 248 259 158 150 189 156 121 123 178 166 138 143 148 152 151 153 153 159 165 162 159 150 146 146 147 142 140 153 154 156 162 159 157 159 158 150 147 155 161 161 160 155 153 161 163 163 161 155 147 139 143 147 144 146 149 153 150 143 147 154 161 164 163 166 172 176 177 171 168 165 161 160 160 155 158 164 165 162 159
224 226 238 238 237 239 245 225 209 262 78 101 103 164 254 194 167 227 203 215 178 158 154 125 124 94 100 123 131 138 144 150 154 158 159 164 170 168 163 157 155 149 144 134 139 157 157 154 158 156 153 150 152 148 147 157 156 149 151 151 153 157 154 152 150 147 145 144 149 153 151 152 155 158 151 148 153 155 162 170 172 174 176 180 177 173 173 166 161 155 151 149 148 149 149 152 150
226 226 232 235 241 241 256 293 302 341 38 74 104 168 262 195 157 204 200 192 176 169 163 167 139 104 114 125 129 137 145 151 155 163 164 167 175 174 165 161 158 144 135 126 136 162 161 155 158 154 151 147 147 146 149 154 149 146 151 155 156 152 147 150 151 153 152 151 159 162 160 162 160 164 157 150 153 155 165 175 178 180 180 185 183 181 182 179 177 165 162 151 139 145 159 176 178
225 230 236 232 242 256 328 331 312 12 351 306 92 196 257 132 161 204 198 186 181 174 160 174 152 135 152 141 137 142 149 155 159 167 169 170 177 178 170 158 152 138 126 127 147 171 169 161 163 157 147 142 143 144 146 146 145 146 151 156 156 152 150 156 162 163 159 162 172 171 170 171 166 169 162 153 156 159 169 178 180 185 189 194 189 186 194 198 198 191 185 160 151 181 199 202 193
220 225 240 238 242 269 251 213 247 286 306 303 8 241 206 140 175 202 195 186 182 171 165 172 158 166 168 146 143 147 154 159 165 173 172 176 178 175 171 138 116 97 101 140 168 178 177 164 159 160 148 141 145 146 144 143 145 147 151 155 156 159 158 163 168 168 168 171 179 176 173 172 163 165 163 154 156 166 176 179 182 186 191 199 193 187 202 207 205 202 199 185 191 213 207 201 199
225 227 238 251 264 290 252 192 202 207 253 259 247 243 217 145 187 198 201 193 183 173 175 169 155 170 165 144 147 151 159 166 171 178 176 178 172 167 166 116 95 92 118 158 178 186 177 155 146 153 147 142 145 141 137 142 150 152 153 155 156 165 166 164 167 174 177 180 192 181 172 168 156 150 156 160 166 183 183 179 189 193 195 199 196 196 206 209 214 213 206 207 210 207 192 192 199
229 234 231 249 264 272 257 156 148 222 235 228 230 267 331 236 208 186 200 193 170 146 145 153 143 154 157 146 151 156 165 174 175 184 181 168 160 161 123 87 92 130 158 157 140 132 154 141 140 145 140 140 140 132 132 140 151 152 151 153 156 169 169 157 168 194 195 195 213 195 169 162 158 154 162 171 177 187 183 182 193 203 207 202 199 206 211 213 227 234 221 216 214 203 197 190 196
226 242 231 237 240 241 255 212 176 213 232 235 253 291 241 235 219 174 201 178 127 112 120 187 139 146 158 151 155 162 167 177 181 183 168 128 149 138 97 95 115 152 162 116 118 149 141 129 135 138 135 138 138 140 147 146 150 152 153 153 156 170 173 166 179 204 212 206 214 212 170 141 146 165 169 170 175 175 174 181 184 201 213 208 207 212 216 220 226 235 232 223 218 207 201 193 196
222 242 244 237 229 234 244 245 230 217 226 235 243 251 231 232 236 192 211 171 146 159 166 199 171 148 153 152 160 164 167 182 177 126 68 64 131 124 107 128 152 157 150 132 149 158 143 132 135 135 134 137 138 145 154 150 145 149 155 156 159 163 170 182 193 207 216 212 200 197 191 137 145 160 162 167 168 158 162 168 166 181 196 206 217 219 224 231 232 233 234 234 231 213 199 200 198
217 234 244 241 230 234 236 236 236 226 224 227 228 234 228 228 256 236 219 175 160 179 181 192 183 164 154 154 162 163 173 173 120 89 87 110 144 126 122 149 161 157 155 161 166 156 149 142 141 141 135 138 140 144 151 147 138 144 153 153 160 165 172 192 212 217 214 210 186 152 132 175 176 154 143 162 161 178 189 180 170 178 184 190 210 224 229 234 242 244 245 248 244 222 198 200 202
226 234 238 238 233 230 230 231 229 227 222 221 226 229 225 211 207 235 210 163 168 187 189 192 187 176 156 150 161 168 169 131 105 114 136 149 150 135 139 159 167 165 164 170 168 154 152 147 147 148 139 140 143 143 146 141 131 141 152 153 161 172 184 205 225 219 202 184 160 146 126 244 238 153 139 165 187 211 208 202 199 199 195 181 193 209 218 235 249 253 253 260 266 256 211 193 203
250 252 245 237 234 234 232 230 226 227 222 215 225 233 229 203 203 235 200 157 185 196 191 191 197 182 152 157 172 165 145 121 121 137 147 149 156 153 163 178 172 165 169 171 162 152 152 150 150 149 141 140 143 141 140 135 131 142 158 160 164 170 187 211 231 224 199 141 122 143 216 251 252 187 147 177 197 200 191 205 206 210 212 179 185 193 193 243 257 256 254 269 293 303 301 230 212
246 247 253 238 230 235 231 228 224 223 220 207 216 231 229 209 215 232 185 158 194 199 202 194 199 185 152 170 170 136 122 128 134 141 144 159 175 171 178 188 170 160 169 167 154 148 148 151 150 145 142 141 140 139 136 133 135 145 159 163 164 172 195 214 227 238 218 175 150 175 214 242 246 216 198 198 198 195 186 200 194 188 201 178 182 197 199 229 245 251 251 262 293 302 304 297 246
243 232 244 244 230 230 221 221 219 218 220 206 205 223 225 212 220 223 173 170 206 199 206 201 197 186 158 168 146 117 122 134 142 143 150 174 189 180 180 185 169 162 164 158 151 145 143 146 145 142 144 144 140 141 139 139 142 149 159 163 167 178 194 207 208 216 209 177 174 197 209 234 234 208 218 207 197 200 192 197 184 165 172 170 184 210 210 208 222 238 242 248 256 251 257 252 254
235 230 231 241 240 229 208 207 212 212 209 196 202 228 231 213 211 212 179 176 205 205 205 205 203 187 166 157 123 120 134 132 138 142 157 179 186 182 184 184 177 171 159 152 150 144 143 145 143 143 146 146 143 144 141 142 149 152 157 162 169 177 182 190 193 192 183 173 181 194 207 222 213 196 212 210 194 191 194 201 190 158 161 187 207 219 223 213 218 239 245 250 242 237 243 229 257
222 230 225 223 236 245 208 193 200 208 192 185 207 232 238 235 215 198 180 180 198 211 206 200 206 191 169 146 118 118 128 130 138 146 166 180 178 184 189 189 188 180 160 152 148 145 149 151 148 145 146 147 142 141 138 139 147 147 151 159 165 167 169 179 180 172 162 161 166 176 192 200 189 168 173 191 180 173 191 210 207 173 175 203 210 208 232 249 242 244 251 258 249 253 266 249 264
211 219 230 218 216 243 215 176 189 206 194 188 209 229 233 252 228 176 168 191 201 213 209 197 204 190 165 144 126 126 131 140 149 157 174 179 180 190 189 190 191 183 164 151 146 152 161 154 148 148 147 148 147 146 143 146 148 145 152 156 154 158 162 167 161 152 149 151 155 161 165 164 151 134 149 171 160 165 188 206 200 162 168 196 200 180 209 244 242 244 252 258 260 272 283 274 272
210 210 228 228 216 231 214 170 182 203 208 201 200 226 238 235 138 152 168 196 203 215 214 200 199 185 175 158 138 137 143 154 155 161 179 183 187 193 188 187 188 181 159 142 147 164 166 150 147 151 146 150 158 157 151 152 150 144 149 147 144 152 154 147 142 137 138 141 139 142 142 133 129 131 149 158 142 161 179 182 188 169 170 180 196 189 194 228 231 239 251 253 260 265 271 272 266
211 207 218 232 220 221 221 189 179 198 210 208 194 215 238 214 151 169 188 196 203 217 216 202 194 186 186 169 150 152 157 163 162 168 187 193 194 193 183 182 185 173 139 141 163 169 159 150 153 151 146 155 161 159 155 152 148 143 144 143 144 147 141 131 134 133 127 125 121 119 118 112 118 127 138 149 143 165 176 166 180 187 176 171 194 195 181 205 221 234 240 247 253 252 257 258 255
224 214 210 228 223 210 230 214 164 190 202 205 210 210 226 230 199 175 185 199 207 218 216 204 195 187 191 179 159 163 167 166 168 178 195 198 196 193 177 176 177 149 125 151 174 166 155 159 158 154 155 154 153 156 157 153 150 150 150 147 149 148 143 137 135 130 121 118 114 108 105 102 103 107 116 136 140 152 164 155 155 180 174 168 183 188 179 194 208 228 230 230 231 233 247 246 247
272 237 212 221 229 203 222 216 151 185 212 202 217 222 219 230 223 189 182 196 207 218 215 202 198 192 196 184 159 165 175 168 171 182 198 196 191 189 172 172 163 132 130 161 173 162 159 163 157 155 159 155 159 164 161 159 159 157 157 154 154 151 146 140 133 124 115 109 102 101 100 97 98 96 98 106 112 124 139 143 136 130 139 138 160 182 194 191 195 219 219 223 222 229 246 247 257
278 263 234 218 231 212 206 198 145 177 225 210 212 227 225 222 232 215 183 190 208 215 212 203 205 200 197 184 160 164 176 167 170 182 193 187 181 179 168 172 156 132 143 174 174 159 156 162 159 157 161 162 170 173 161 162 168 163 163 158 152 148 145 142 132 122 115 110 103 101 100 95 94 89 85 84 79 83 89 105 110 114 120 118 139 164 205 183 202 221 200 220 230 227 243 260 351
249 255 254 225 225 222 195 162 137 177 210 228 217 224 229 219 232 223 180 191 213 213 212 207 210 206 196 181 157 161 177 171 173 180 182 174 170 173 169 175 156 137 153 180 174 157 156 163 165 161 163 166 176 178 163 164 175 169 165 153 147 142 132 126 122 120 119 116 112 106 102 99 97 91 87 82 72 67 62 72 89 108 120 133 144 140 159 188 238 235 201 216 230 222 235 214 120
242 243 245 234 214 218 204 161 184 200 200 241 237 225 229 223 226 212 176 196 212 211 215 208 209 211 198 178 158 167 183 175 175 172 158 157 183 186 178 179 156 138 157 183 172 157 162 167 172 165 164 174 178 169 165 179 177 162 155 139 130 122 116 114 117 119 119 118 117 112 108 105 101 96 89 79 66 57 52 62 74 95 116 136 138 132 154 187 225 243 210 213 226 217 230 201 155
227 235 240 240 217 217 218 169 192 199 200 238 252 238 228 215 210 204 187 200 207 207 212 207 206 209 196 175 162 166 178 179 177 157 136 169 204 198 188 186 163 143 160 183 168 160 177 176 176 170 168 179 174 164 181 195 166 147 143 131 120 116 121 128 128 125 125 125 121 116 114 112 106 99 90 75 62 53 52 61 68 92 110 121 126 133 155 165 186 214 198 217 230 230 231 208 166
220 224 238 251 242 221 194 154 184 212 206 211 224 239 230 200 202 210 195 193 204 204 207 208 205 202 189 171 161 160 176 186 171 142 152 193 199 193 192 189 175 151 157 176 165 159 180 176 171 175 175 176 170 179 191 177 153 150 147 141 138 137 140 143 138 134 134 128 123 121 117 111 107 100 92 80 69 61 59 63 70 85 99 101 101 103 96 101 104 104 157 221 255 219 234 243 169
234 204 219 245 258 241 207 180 199 227 224 193 203 232 241 196 200 208 193 190 204 202 205 209 204 200 189 169 161 160 179 187 146 145 179 198 192 190 194 189 181 154 144 162 164 156 170 174 169 169 166 166 171 185 183 160 154 159 154 150 151 148 145 139 137 136 130 124 123 122 116 112 109 101 96 89 84 73 62 62 69 78 84 84 80 69 59 55 51 51 51 32 26 42 265 278 136
249 189 196 223 241 242 229 220 221 230 248 191 203 229 245 210 199 197 187 190 204 200 203 209 204 201 184 162 162 168 185 174 136 167 200 202 193 191 195 187 171 144 126 139 157 156 157 158 152 145 143 157 168 178 188 171 160 158 158 157 151 143 138 134 135 133 127 128 130 128 125 118 111 106 99 96 94 86 75 70 67 69 70 70 70 67 56 50 55 51 44 48 42 39 17 348 77
250 203 193 212 225 227 224 231 236 234 239 221 212 223 236 226 200 189 183 192 204 198 199 204 202 201 176 151 163 180 193 167 144 184 213 214 204 192 192 181 146 119 108 120 142 150 147 138 143 145 143 152 158 159 175 176 156 160 163 152 143 135 133 136 137 134 131 134 134 131 126 118 111 106 100 94 91 90 89 81 71 68 67 65 63 66 62 55 56 52 45 48 45 41 24 13 36
232 219 215 214 222 224 223 229 233 229 234 241 224 213 222 224 190 179 180 198 204 193 195 196 189 198 179 156 166 181 195 181 163 183 208 222 217 191 179 165 127 107 106 121 131 135 148 145 129 128 122 132 148 160 168 157 144 164 158 138 136 134 137 141 137 136 137 137 136 133 128 124 119 111 101 92 85 86 92 89 82 75 69 66 64 67 68 62 59 53 46 44 42 43 37 29 39
200 217 222 214 219 223 225 232 235 231 231 242 230 212 224 223 177 175 191 210 206 175 185 196 180 186 180 161 167 182 195 190 171 174 195 213 208 135 93 79 92 105 112 120 123 125 138 133 112 111 117 131 147 162 170 155 142 152 143 132 138 141 144 145 142 144 144 141 141 139 135 130 123 116 107 95 87 90 94 93 92 83 76 74 73 73 72 69 66 59 53 49 46 47 45 41 43
220 227 219 207 207 209 214 218 225 235 234 237 222 206 219 227 188 188 186 186 190 172 180 193 176 173 169 158 175 190 196 191 172 171 183 187 151 75 72 79 100 119 120 120 125 130 136 137 135 142 147 150 155 162 168 160 151 148 142 141 147 150 150 150 152 152 148 147 146 143 139 133 127 121 111 100 96 100 102 99 95 87 82 80 78 77 74 72 71 67 63 59 55 53 50 48 48
221 224 222 212 203 204 218 209 209 230 233 237 219 198 212 220 112 92 130 132 129 138 156 177 182 177 169 168 189 197 192 184 177 185 180 150 118 103 109 117 126 132 127 124 130 136 142 148 151 152 152 154 157 161 163 164 162 155 149 150 153 156 157 157 157 154 152 152 149 148 145 139 134 126 115 108 103 103 102 99 94 89 87 84 82 80 73 71 75 76 71 66 63 59 54 55 56
213 219 220 215 204 207 226 216 211 225 213 206 214 198 217 215 125 98 112 128 117 89 118 179 198 183 175 178 189 194 184 169 172 201 177 107 114 127 134 140 142 135 129 130 137 144 151 157 157 154 154 157 158 161 165 166 171 165 157 154 155 160 163 160 158 157 155 153 152 153 150 143 137 129 122 116 109 106 102 97 94 91 92 90 88 84 76 69 74 79 72 66 64 60 58 57 57
209 226 227 221 218 215 233 236 229 235 213 191 193 199 226 224 143 128 144 145 142 136 156 193 192 174 175 176 175 174 161 154 182 187 108 97 116 133 141 149 149 141 141 143 147 151 153 154 153 151 154 159 160 164 167 166 170 169 160 156 160 164 163 162 160 158 157 156 156 155 150 145 140 134 130 123 117 112 105 102 99 95 95 95 92 89 85 76 75 79 74 69 68 63 62 60 58
202 223 229 224 225 221 232 256 26 317 268 201 185 206 209 157 113 126 141 140 146 161 179 187 178 164 159 151 152 158 145 149 175 126 93 98 113 122 128 138 149 154 155 154 153 153 151 150 151 152 153 157 159 163 167 165 165 167 165 164 169 168 164 164 160 157 160 158 157 156 152 149 144 139 136 130 125 120 114 110 104 100 98 97 94 92 91 86 81 82 78 74 74 69 68 66 62
194 215 232 227 227 241 242 208 141 183 262 236 194 213 179 140 141 158 165 159 152 157 163 160 143 126 121 122 133 147 140 133 131 108 103 109 116 121 128 138 151 163 168 159 152 151 149 147 150 151 150 152 157 162 165 163 162 168 174 173 173 170 164 163 161 159 159 156 156 156 153 150 146 143 141 136 132 128 124 118 110 106 103 100 99 97 95 93 88 86 83 78 77 75 73 71 66
228 215 232 231 224 256 262 242 194 200 231 236 207 213 207 188 180 174 182 181 151 139 129 112 95 92 101 110 120 131 133 126 116 112 115 123 129 134 136 137 142 153 168 149 137 138 141 141 143 147 148 149 154 157 158 162 166 174 180 178 173 170 166 164 163 159 157 157 157 156 154 154 151 149 147 142 138 135 131 126 117 112 109 104 104 101 98 98 93 90 88 83 81 80 78 75 71
251 262 254 239 227 229 232 238 236 221 228 232 213 214 223 227 196 173 179 174 143 130 116 108 105 101 102 106 113 121 126 124 118 113 115 124 136 141 135 125 122 126 117 98 103 112 117 126 137 141 144 147 147 149 155 166 174 177 182 181 176 173 169 164 163 162 159 160 159 157 157 156 155 157 155 149 145 142 139 134 128 122 117 113 110 107 104 102 100 98 95 91 88 86 84 82 76
236 263 258 237 241 243 230 230 236 232 231 227 222 216 208 310 325 164 168 156 132 125 120 122 118 108 105 103 110 119 123 121 119 118 119 122 127 129 123 116 115 117 105 97 97 96 94 113 131 134 140 145 144 147 156 168 174 177 180 180 177 176 172 165 165 165 163 163 163 160 159 160 161 164 163 157 152 148 147 144 140 135 130 125 120 117 114 111 108 105 103 103 101 99 96 89 81
211 225 234 228 227 226 230 241 246 246 240 225 231 220 151 23 3 102 135 134 123 124 127 126 120 112 106 99 102 111 113 113 117 123 129 129 124 122 118 118 123 120 109 110 117 123 127 134 138 137 142 147 147 151 161 171 175 174 174 175 174 176 174 170 168 168 167 166 166 163 161 164 167 169 169 166 159 156 154 152 150 147 142 138 134 129 125 122 118 113 111 112 112 112 106 99 93
225 214 221 228 228 222 229 237 235 242 253 246 241 222 104 26 354 76 122 134 130 133 130 119 114 111 107 103 101 102 103 105 112 121 129 135 135 130 123 122 126 126 127 129 133 142 145 138 139 144 148 149 150 153 158 165 171 173 175 174 173 175 178 176 173 172 171 167 167 169 168 170 174 175 175 173 167 162 160 159 159 156 153 150 147 144 140 136 131 127 125 122 122 121 112 110 112